Theta_e
312 316 317 317 316 316 316 317 318 315 311 313 316 316 311 306 305 305 304 303 302 300 297 296 296 297 298 302 305 306 305 304 304 303 302 300 297 296 296 297 300 301 301 302
312 316 316 313 313 313 313 316 316 313 310 312 314 314 312 306 306 305 304 303 301 300 298 296 296 296 297 297 298 300 302 302 300 299 297 294 292 291 290 290 291 291 292 292
316 315 312 311 310 312 313 315 316 316 312 311 312 316 313 304 303 301 301 301 300 300 298 297 295 295 295 295 296 296 296 296 295 294 292 291 291 290 290 289 288 287 287 287
313 311 310 311 312 312 315 312 312 313 314 320 312 324 314 309 305 302 301 300 300 298 296 294 294 293 292 292 292 292 292 292 292 292 293 293 291 289 288 288 287 286 286 286
315 311 312 314 313 311 317 311 311 312 315 315 315 317 318 307 307 304 302 301 300 297 296 294 292 290 290 290 290 290 290 290 290 291 290 290 289 288 288 288 287 287 285 285
314 308 311 313 309 311 309 311 311 311 313 319 318 317 318 312 311 307 303 302 300 296 294 292 290 289 289 289 289 289 289 288 288 289 289 289 289 288 288 288 287 287 286 285
315 312 309 308 311 308 310 315 320 321 319 321 312 313 317 314 308 307 304 302 300 296 294 292 290 289 289 289 289 288 288 288 288 288 288 288 288 288 287 287 287 287 286 285
322 322 312 309 315 314 312 317 322 326 323 320 310 317 317 306 305 304 304 303 300 297 294 292 291 289 289 288 288 288 288 288 288 288 287 287 287 287 287 286 286 286 285 285
320 322 309 307 307 313 312 314 313 313 307 319 318 314 311 304 304 303 303 302 299 297 295 293 290 289 288 288 288 288 288 288 288 287 287 287 287 287 286 286 285 285 284 283
316 320 310 306 308 307 311 312 315 315 325 326 318 317 318 310 308 305 303 302 300 297 295 293 291 289 288 288 288 288 288 288 287 287 287 287 286 286 286 286 285 285 284 283
313 316 313 308 311 314 310 312 312 314 318 324 322 317 312 314 311 307 305 303 301 298 295 293 291 290 289 288 287 287 287 287 287 286 286 286 286 286 286 285 285 284 283 282
315 318 318 313 308 307 311 313 313 320 316 313 315 318 306 308 308 308 306 303 302 299 296 294 292 290 289 288 288 287 287 287 287 286 286 286 286 285 285 284 284 284 283 282
314 318 324 319 313 308 310 311 312 315 316 320 322 319 305 306 305 305 306 303 301 299 297 295 293 291 289 288 288 287 287 287 287 286 286 286 285 285 284 285 285 284 283 281
313 318 322 325 321 317 314 313 311 314 320 319 317 316 308 308 307 305 303 303 301 299 297 295 294 292 290 289 288 287 287 287 286 286 286 285 285 284 285 285 284 283 281 280
314 319 319 319 314 314 316 316 312 314 316 318 317 315 314 309 308 307 305 303 301 299 297 296 295 292 290 289 288 287 287 286 286 286 285 285 284 284 284 283 282 281 279 278
311 317 318 318 314 309 312 313 313 312 314 314 315 315 311 309 307 306 303 301 300 298 297 295 294 293 290 289 288 287 286 286 286 285 284 284 283 282 282 281 280 279 278 277
308 314 314 321 314 310 313 313 312 312 312 313 314 313 308 306 305 306 305 301 299 298 297 295 294 292 290 289 288 287 286 285 285 285 284 283 281 281 280 280 278 277 276 275
309 310 312 310 307 315 312 297 308 311 310 309 307 305 307 307 304 302 301 301 299 298 297 295 293 292 290 289 288 287 285 285 285 284 283 281 280 279 279 278 276 276 275 274
302 309 305 309 310 311 304 296 302 307 309 306 308 303 301 294 296 298 295 296 298 297 295 293 292 291 290 288 287 287 285 285 284 282 281 280 279 279 277 276 275 274 273 272
298 303 314 305 312 315 310 294 293 299 307 300 305 306 297 295 305 305 293 292 291 292 292 291 289 288 287 286 287 286 284 283 282 281 280 279 279 278 276 275 274 273 272 272
302 303 310 308 311 308 304 292 291 307 310 296 300 299 294 298 300 293 290 289 290 289 288 288 286 286 286 287 287 285 284 283 282 280 280 279 278 276 275 274 273 272 271 271
305 307 306 308 310 310 292 290 301 303 291 293 291 293 294 292 290 289 290 289 288 287 286 286 285 286 286 286 286 284 283 282 281 280 279 277 276 274 273 272 272 271 271 269
304 305 307 307 308 292 292 294 293 293 294 290 292 291 291 291 290 289 289 288 286 286 286 285 286 285 284 285 285 284 283 282 280 278 277 275 274 273 272 272 271 270 269 268
292 290 298 299 294 292 291 290 290 291 291 290 290 290 290 290 289 288 287 286 285 285 285 285 285 283 283 284 284 283 282 280 279 277 275 274 273 272 271 271 270 269 268 267
294 291 292 292 289 290 291 291 291 290 289 288 287 288 289 290 288 288 287 287 285 285 284 284 284 284 284 284 282 281 280 279 277 275 273 272 271 270 270 270 269 268 268 268
289 291 292 296 292 294 293 293 291 290 289 289 288 286 286 287 288 287 287 286 285 284 283 283 283 283 283 282 281 279 278 278 276 273 271 270 269 268 268 268 268 268 267 267
Wind_Speed
4 8 14 19 19 4 3 5 9 4 3 4 12 12 12 8 6 6 5 5 5 5 4 5 6 7 9 13 18 21 23 23 24 28 31 31 28 23 24 25 25 24 23 21
5 15 15 3 10 10 7 9 12 6 4 4 10 13 7 9 6 6 7 6 6 7 6 7 7 8 10 12 13 16 17 16 14 15 17 17 19 21 21 22 24 24 24 22
14 3 11 8 8 11 13 14 11 9 1 4 6 13 13 4 5 5 5 6 6 7 8 8 9 10 11 13 13 14 16 17 19 22 24 23 22 20 20 20 22 24 24 24
11 5 8 11 12 12 14 12 10 8 4 9 3 7 4 7 8 9 10 10 10 9 7 8 9 11 12 12 13 15 16 18 16 15 18 20 21 22 18 18 18 21 23 23
6 10 10 9 8 10 5 5 9 6 11 5 8 6 4 5 11 13 14 13 12 10 10 10 11 10 11 12 14 16 18 20 20 21 21 22 23 19 18 17 17 18 20 22
4 1 5 5 3 6 13 7 5 3 3 8 15 12 7 7 8 16 17 17 16 14 11 11 10 9 12 13 15 17 19 19 19 21 20 21 21 18 17 15 15 15 15 17
6 7 4 4 5 3 5 11 4 5 5 6 3 8 11 7 8 16 24 21 18 15 13 12 14 13 12 13 15 16 18 19 17 19 20 20 20 18 17 15 13 12 12 13
13 8 16 12 13 9 15 15 5 7 5 2 2 7 5 1 5 3 17 19 18 17 14 14 16 14 14 13 14 16 18 19 16 17 19 18 16 16 15 13 13 11 10 11
10 7 4 5 4 11 10 11 2 6 2 2 5 4 5 4 6 8 16 18 20 19 18 17 19 17 16 15 16 17 17 17 16 16 15 16 15 14 14 12 11 10 8 8
6 3 2 3 3 0 6 12 4 4 5 6 5 6 9 11 16 13 18 22 20 18 17 16 20 19 18 18 17 17 17 17 17 15 14 13 14 12 11 9 8 7 7 8
5 3 3 5 12 18 6 7 4 2 4 4 4 5 5 12 16 19 19 21 23 22 20 18 23 22 21 20 19 19 18 19 16 15 15 14 12 10 8 7 5 5 6 8
11 3 5 14 0 3 8 9 12 7 6 4 3 6 4 3 8 14 17 19 21 22 21 22 25 26 25 24 22 21 19 18 17 16 14 12 11 9 7 5 3 4 7 10
12 6 3 2 4 2 9 11 13 7 2 11 7 5 3 3 7 12 13 16 19 21 21 20 26 27 27 26 25 23 21 20 19 18 15 12 10 9 7 3 2 6 10 12
14 7 15 17 11 11 12 18 16 15 9 10 18 13 7 10 11 12 14 16 18 20 21 20 21 27 29 28 27 26 24 21 21 18 16 14 12 10 6 2 3 7 11 12
11 9 18 23 9 7 12 21 22 23 25 17 20 21 15 16 16 16 17 15 18 20 21 22 21 26 28 27 27 25 23 22 22 20 16 14 14 10 6 3 4 8 10 12
4 8 15 22 15 9 6 14 23 26 24 22 18 17 4 12 9 10 14 15 18 19 22 22 19 25 27 27 27 25 23 24 22 18 16 17 14 10 7 5 6 8 10 13
5 7 6 19 11 7 5 21 17 16 18 20 15 18 6 7 12 13 14 15 16 17 19 19 21 27 28 29 29 29 26 24 23 20 19 18 14 11 7 6 7 9 11 12
8 6 4 2 3 8 4 3 13 18 7 10 5 3 5 6 6 2 5 11 12 11 13 14 19 23 28 31 30 25 26 26 24 21 21 18 14 10 7 6 8 9 11 13
1 5 3 4 6 4 2 5 8 8 9 9 15 5 4 3 1 4 8 6 8 9 10 16 23 26 25 26 28 32 29 25 23 23 21 18 14 10 8 7 9 10 12 14
1 4 5 3 5 9 3 2 2 3 6 9 14 11 9 8 5 8 7 6 5 9 12 15 17 19 23 27 33 31 29 26 25 24 21 17 13 11 9 9 9 10 13 15
5 3 10 6 5 4 4 5 4 7 4 4 8 6 10 7 3 2 7 7 9 10 13 14 18 22 25 31 31 29 28 29 25 21 19 16 14 11 10 9 9 11 13 14
8 9 4 3 4 7 6 5 7 3 2 5 5 7 10 4 6 5 8 8 9 10 12 16 21 23 26 30 31 29 28 24 22 21 19 17 14 11 10 9 9 10 12 14
4 4 4 7 4 1 10 2 2 1 4 5 5 6 9 10 9 9 8 8 9 13 16 21 24 25 25 28 29 28 26 24 23 21 19 17 14 12 10 9 9 9 10 10
4 2 2 2 2 2 9 3 2 4 2 3 2 6 11 10 10 7 5 6 7 15 19 26 25 23 24 25 27 27 25 25 24 22 20 17 15 13 11 10 9 9 9 7
2 7 5 2 4 3 4 9 5 5 2 3 3 6 12 8 6 6 7 6 11 17 20 26 27 26 28 27 27 26 26 26 25 22 20 17 16 14 11 11 10 10 10 10
6 6 5 4 7 3 4 11 11 9 8 7 6 4 3 6 7 6 6 13 15 17 20 23 27 26 28 26 29 28 27 27 26 22 19 17 14 13 11 10 10 11 11 11
Wind_Direction
159 205 217 210 213 233 195 215 228 204 172 235 239 252 202 189 195 198 190 163 132 96 75 67 65 70 80 94 103 111 115 115 111 108 107 101 88 84 83 84 85 83 82 83
166 228 227 209 201 205 218 241 239 271 207 241 255 251 196 197 208 205 177 166 144 131 113 92 89 91 93 94 99 106 109 116 109 106 103 100 99 90 86 83 81 80 80 77
210 185 186 164 174 199 225 227 234 259 159 232 276 259 228 178 168 162 164 152 152 142 127 108 100 98 101 95 96 101 104 105 104 107 107 103 96 90 82 73 73 72 73 71
238 175 164 189 209 198 232 215 230 226 233 259 216 281 212 197 189 193 180 184 170 159 143 127 119 107 102 100 105 108 107 105 106 110 111 111 105 98 90 85 81 75 74 71
199 177 179 193 207 186 268 151 204 211 230 264 205 260 219 173 214 201 191 189 181 173 161 149 133 116 107 107 105 104 104 104 105 106 105 105 105 105 104 94 83 74 67 65
261 42 197 201 106 193 136 107 85 101 189 250 230 219 193 204 215 185 189 191 182 175 170 155 139 133 121 116 113 111 108 102 105 105 103 104 105 104 99 91 81 67 61 59
206 213 173 171 117 101 178 164 173 213 209 246 137 206 250 210 183 192 185 187 181 176 176 169 164 156 144 133 124 117 114 107 108 108 105 105 104 102 97 92 82 77 63 52
201 228 183 189 208 179 189 189 197 203 202 190 119 228 240 116 150 196 187 182 176 180 182 177 173 167 158 146 135 131 126 121 120 116 112 111 108 105 97 89 86 72 61 50
193 241 184 184 149 163 183 212 142 106 67 247 209 230 236 183 190 169 179 181 186 186 185 182 178 177 169 162 155 149 140 134 133 128 122 116 110 104 101 95 84 78 60 42
196 195 207 120 125 98 208 150 172 223 207 229 213 244 232 206 205 188 185 190 190 189 188 186 185 182 178 174 167 159 152 147 143 139 133 125 121 115 108 99 86 67 42 26
154 224 134 144 210 191 159 188 212 199 216 222 256 224 208 212 198 192 197 193 189 189 189 188 188 186 185 181 174 168 163 153 154 152 149 143 139 135 125 113 86 50 22 8
195 134 174 203 91 304 242 215 192 200 186 243 294 250 153 177 193 196 194 195 193 191 191 193 189 187 188 186 180 176 170 166 168 168 167 165 158 149 143 131 80 22 0 348
173 189 193 232 208 169 217 204 218 240 72 206 203 241 162 162 175 201 201 191 194 194 191 194 193 193 190 189 184 181 178 179 176 179 180 178 174 164 166 151 11 346 338 334
192 163 205 220 227 161 205 205 201 197 217 204 227 232 198 200 204 193 199 196 194 197 195 194 196 196 194 192 187 186 186 184 182 186 186 183 187 179 175 195 323 329 330 329
175 229 224 243 259 229 211 202 196 208 218 209 235 226 213 199 199 204 202 192 188 195 196 200 198 196 192 190 189 189 190 188 189 189 188 186 194 191 193 230 307 321 321 318
203 225 227 244 227 221 230 212 210 214 219 229 243 248 196 194 192 196 203 189 196 199 202 202 198 192 190 189 187 187 191 192 194 189 188 197 195 195 205 242 292 310 312 313
182 211 189 236 211 182 240 222 201 211 217 219 218 236 135 181 206 208 204 196 201 202 204 201 199 193 187 185 186 192 192 189 192 191 195 199 200 202 219 260 291 301 306 310
176 191 189 135 153 212 229 334 209 210 192 216 257 177 182 210 208 207 165 193 205 206 203 201 194 192 188 187 191 188 188 190 192 192 197 201 202 210 232 259 284 295 304 310
344 179 171 187 208 339 257 200 169 173 227 191 220 201 176 108 89 238 207 203 213 206 194 191 191 190 183 180 180 191 188 188 189 193 198 202 206 215 235 261 278 292 304 310
189 289 220 156 210 214 161 212 177 130 257 199 196 202 162 147 207 239 172 172 167 175 174 170 172 169 171 179 189 186 186 188 192 198 200 204 210 222 239 258 277 293 307 312
161 183 223 200 215 262 253 165 167 159 256 149 186 147 151 188 212 108 146 157 166 162 164 162 167 169 173 178 181 183 188 195 200 198 200 205 214 226 240 257 279 299 309 310
178 172 185 189 217 254 139 96 187 166 44 138 161 174 186 154 150 157 161 156 156 155 156 167 159 168 175 179 183 186 194 198 196 197 200 207 215 226 239 257 281 298 303 307
219 203 188 204 190 156 192 74 213 101 136 189 172 176 168 163 174 165 168 167 170 170 168 176 171 170 178 186 193 196 201 196 194 196 200 207 215 226 240 256 275 287 293 298
235 187 202 170 179 211 200 225 238 195 188 178 159 159 169 178 177 176 157 163 172 180 185 186 183 181 188 196 203 211 202 197 197 196 201 208 216 223 236 252 267 273 278 285
130 148 142 282 256 290 233 230 224 200 169 146 145 172 190 177 174 169 184 186 192 192 195 194 193 198 204 204 207 207 203 200 196 198 203 208 215 221 232 245 255 262 274 270
180 158 183 214 200 178 200 213 206 193 206 203 182 172 179 175 186 176 200 205 198 198 201 202 208 211 214 213 212 207 206 203 200 198 203 209 212 221 230 241 259 263 264 264